Starlink 11162

operational
NORAD ID: 60123 Int'l Des: 2024-118 Owner: SPXS Country: US Constellation: starlink
LEOCIRCULAR

About Starlink 11162

Description loading...

Live Position

Loading 3D Globe...

Upcoming Passes

Altitude History

Altitude vs Time

uPlot chart will show altitude changes over time

Two-Line Element Set

1 60123U 24118L 26102.85553907 -.00000320 00000-0 22148-5 0 9999
2 60123 53.1600 52.5257 0000688 87.0139 273.0957 15.69701518103364
Epoch: Apr 12, 2026 • Age: 9 hours

Current Status

Altitude 374.9 km
Velocity 7.68 km/s
Sub-Earth Point -43.86°S, 2.78°W
Launch Date Jun 24, 2024
Age 1.8 years
Type internet

Technical Details

Classification Payload
Mass 960.00 kg
Dry Mass 910.00 kg
Total Mass 960.00 kg
Length 0.30 m
Diameter 4.10 m
Span 29.00 m
Shape Box + pan
Manufacturer SPXS
Bus Type Starlink V2MD
Phase Status In Orbit
Owner/State SPXS/US

Large Constellations

Loading constellations...